Location: Unspecified
(33.6682°S, 0.0000°E)
Time: 07:44:00
(UTC+00:00)

Hubble Space Telescope - Visible Passes

Search period start: 23 May 2019 00:00
Search period end: 02 June 2019 00:00
Orbit: 536 x 540 km, 28.5° (Epoch: 22 May)

Date Brightness Start Highest point End Pass type
(mag) Time Alt. Az. Time Alt. Az. Time Alt. Az.
23 May 1.9 04:53:15 35° N 04:53:15 35° N 04:56:48 10° ENE visible
24 May 2.3 04:43:23 28° NNE 04:43:23 28° NNE 04:46:08 10° NE visible
24 May 3.1 06:20:50 10° NW 06:23:06 14° NNW 06:25:22 10° N visible
25 May 2.9 04:33:32 21° NNE 04:33:32 21° NNE 04:35:26 10° NE visible
25 May 3.2 06:11:06 10° NW 06:12:29 11° NNW 06:13:51 10° N visible
26 May 3.4 04:23:41 15° NNE 04:23:41 15° NNE 04:24:41 10° NE visible
